Location: *
(50.9167°S, 179.4000°W)
Time: 21:40:57
(UTC+00:00)

ADEOS II - Pass Details

Date: 03 March 2024
Orbit: 797 x 798 km, 98.7° (Epoch: 16 April)

Event Time Altitude Azimuth Distance (km) Brightness Sun altitude
Exits shadow 12:18:44 37° 128° (SE) 1,242 3.3 -32.5°
Drops below altitude 10° 12:23:11 10° 182° (S) 2,411 5.4 -32.5°
Sets 12:25:40 0° 190° (S) 3,348 6.3 -32.5°
